Weather in Morwell

Australia     38°14′17″S   146°24′12″E
temp.,
°C
wind,
m/s
gust,
m/s
humid.,
%
clouds,
%
prec.,
mm/h
press.,
hPa
HPBL,
m
14 august, sun
sun1401:00+6w28100100 0.0 1008239
04:00+7wnw31199100 0.1 1006687
07:00+8wnw51397100 0.2 10031249
10:00+8wnw51598100 3.6 10011461
13:00+9wnw61697100 8.0 9991486
16:00+9wnw51698100 19.0 9971626
19:00+10wnw61798100 13.7 9981649
22:00+9wnw41498100 24.0 10001514
15 august, mon
mon1501:00+9wnw51597100 4.6 9991434
04:00+8wnw51697100 7.6 9991490
07:00+8wnw51596100 0.6 10001311
10:00+9wnw51484100 0.6 10011465
13:00+10wnw51580100 0.1 10001507
16:00+11wnw5147756 0.2 10001505
19:00+10w41378100 0.4 10021473
22:00+8wnw41295100 3.6 1003956
16 august, tue
tue1601:00+9wnw41290100 0.2 1004869
04:00+9wnw41190100 0.3 1004976
07:00+9w31097100 0.2 1008860
10:00+10w399694 0.6 1010914
13:00+12w399067 1.1 1010963
16:00+11wsw399330 2.3 1011897
19:00+10wsw3991100 0.1 1016839
22:00+10w2793100 0.1 1018576
17 august, wed
wed1701:00+9w159592 0.0 1018255
04:00+7wsw119938 0.0 101841
07:00+7w1198100 0.0 102029
10:00+11w1272100 0.0 1020526
13:00+14ene2357100 0.0 1015734
16:00+15ssw0262100 0.0 1014210
19:00+12e1175100 0.0 101436
22:00+10nne1192100 0.2 101318
18 august, thu
thu1801:00+10ene1487100 0.0 1010115
04:00+11wsw1876100 0.0 1009324
07:00+13nw31163100 0.0 1009900
10:00+14wnw31465100 0.0 10081283
13:00+11w31194100 0.6 1007889
16:00+10w31197100 2.9 1006697
19:00+9wnw1899100 3.2 1007376
22:00+10nw21097100 5.1 1007948